McCall, ID

4:14 PM MST on February 22, 2017 (GMT -0700)
McCall

Weather History for KMYL - February, 2014

Change the Weather History Date:

Thursday, February 27, 2014

  Actual Average Record
Temperature  
Mean Temperature 33 °F 24 °F  
Max Temperature 38 °F 36 °F 55 °F (1992)
Min Temperature 28 °F 13 °F -22 °F (1962)
Degree Days  
Heating Degree Days 32 41  
Month to date heating degree days 1073 1160  
Since 1 July heating degree days 5965 6634  
Cooling Degree Days 0 0  
Month to date cooling degree days 0 0  
Year to date cooling degree days 0 0  
Moisture  
Dew Point 30 °F    
Average Humidity 89    
Maximum Humidity 92    
Minimum Humidity 85    
Precipitation  
Precipitation 0.30 in 0.06 in 0.84 in (1950)
Month to date precipitation 3.07 1.68  
Year to date precipitation 4.73 3.41  
Sea Level Pressure  
Sea Level Pressure 29.68 in    
Wind  
Wind Speed 1 mph (NNE)    
Max Wind Speed 8 mph    
Max Gust Speed 8 mph    
Visibility 7 miles    
Events Rain , Snow    
T = Trace of Precipitation, MM = Missing Value Source: NWS Daily Summary

Daily Weather History Graph

Daily Weather History Graph

Search for Another Location

Airport or City:

Trip Planner

Search our weather history database for the weather conditions in past years. The results will help you decide how hot, cold, wet, or windy it might be!

Date:

Astronomy

Feb. 27, 2014 Rise Set
Actual Time 7:25 AM MST 6:29 PM MST
Civil Twilight 6:55 AM MST 6:58 PM MST
Nautical Twilight 6:22 AM MST 7:32 PM MST
Astronomical Twilight 5:48 AM MST 8:06 PM MST
Moon 6:04 AM MST (2/27) 4:58 PM MST (2/27)
Length of Visible Light 12h 02m
Length of Day
11h 03m
Waning Crescent, 4% of the Moon is Illuminated
Feb 27
Waning Crescent
Mar 1
New
Mar 8
First Quarter
Mar 16
Full
Mar 23
Last Quarter

Hourly Weather History & Observations

Time (MST) Temp. Windchill Dew Point Humidity Pressure Visibility Wind Dir Wind Speed Gust Speed Precip Events Conditions
12:51 AM 30.0 °F - 27.0 °F 88% 29.78 in 10.0 mi Calm Calm - N/A   Overcast
1:51 AM 28.9 °F 22.8 °F 26.1 °F 89% 29.76 in 10.0 mi NE 5.8 mph - N/A   Overcast
2:51 AM 28.0 °F - 25.0 °F 88% 29.74 in 10.0 mi Calm Calm - N/A   Mostly Cloudy
3:51 AM 30.0 °F - 27.0 °F 88% 29.71 in 10.0 mi Calm Calm - N/A   Overcast
4:51 AM 28.9 °F - 26.1 °F 89% 29.69 in 10.0 mi Calm Calm - N/A   Overcast
5:51 AM 30.0 °F - 27.0 °F 88% 29.68 in 10.0 mi Calm Calm - N/A   Overcast
6:51 AM 30.0 °F - 27.0 °F 88% 29.67 in 10.0 mi Calm Calm - N/A   Overcast
7:51 AM 30.0 °F 26.5 °F 27.0 °F 88% 29.68 in 10.0 mi West 3.5 mph - N/A   Overcast
8:51 AM 32.0 °F - 28.9 °F 88% 29.68 in 10.0 mi Calm Calm - 0.01 in   Overcast
9:51 AM 32.0 °F - 28.9 °F 88% 29.69 in 10.0 mi Calm Calm - N/A   Overcast
10:31 AM 34.0 °F - 28.9 °F 82% 29.64 in 10.0 mi Calm Calm - 0.00 in Rain Light Rain
10:51 AM 35.1 °F - 30.0 °F 82% 29.69 in 10.0 mi Calm Calm - 0.00 in Rain Light Rain
11:51 AM 36.0 °F 33.3 °F 33.1 °F 89% 29.69 in 10.0 mi ENE 3.5 mph - 0.03 in Rain Light Rain
12:31 PM 37.0 °F 34.5 °F 33.1 °F 86% 29.64 in 10.0 mi ENE 3.5 mph - 0.02 in Rain Light Rain
12:51 PM 37.9 °F - 33.1 °F 83% 29.67 in 10.0 mi Calm Calm - 0.02 in   Overcast
12:58 PM 37.9 °F - 34.0 °F 86% 29.63 in 10.0 mi Calm Calm - 0.00 in Rain Light Rain
1:39 PM 36.0 °F 31.1 °F 33.1 °F 89% 29.63 in 10.0 mi SSE 5.8 mph - 0.00 in Rain Light Rain
1:51 PM 36.0 °F 32.1 °F 33.1 °F 89% 29.67 in 10.0 mi South 4.6 mph - 0.00 in Rain Light Rain
2:19 PM 36.0 °F 33.3 °F 33.1 °F 89% 29.62 in 10.0 mi South 3.5 mph - 0.01 in Rain Light Rain
2:26 PM 36.0 °F 33.3 °F 33.1 °F 89% 29.62 in 10.0 mi South 3.5 mph - 0.01 in Rain Light Rain
2:51 PM 36.0 °F - 33.1 °F 89% 29.67 in 10.0 mi Calm Calm - 0.01 in   Overcast
3:40 PM 37.0 °F - 33.1 °F 86% 29.62 in 10.0 mi Calm Calm - 0.00 in Rain Light Rain
3:51 PM 36.0 °F - 33.1 °F 89% 29.66 in 10.0 mi Calm Calm - 0.00 in Rain Light Rain
4:51 PM 37.0 °F - 33.1 °F 86% 29.67 in 8.0 mi Calm Calm - 0.03 in Rain Light Rain
5:51 PM 35.1 °F 32.2 °F 33.1 °F 92% 29.68 in 6.0 mi NNW 3.5 mph - 0.02 in Rain Light Rain
6:51 PM 35.1 °F - 32.0 °F 89% 29.69 in 7.0 mi Calm Calm - 0.04 in Rain Light Rain
7:51 PM 34.0 °F 31.0 °F 30.9 °F 89% 29.70 in 7.0 mi NNW 3.5 mph - 0.03 in Snow Light Snow
8:27 PM 33.1 °F 30.0 °F 30.9 °F 92% 29.65 in 2.5 mi North 3.5 mph - 0.03 in Snow Light Snow
8:34 PM 33.1 °F - 30.0 °F 89% 29.65 in 2.0 mi Calm Calm - 0.04 in Snow Light Snow
8:45 PM 32.0 °F - 30.0 °F 92% 29.66 in 1.8 mi Calm Calm - 0.06 in Snow Light Snow
8:51 PM 32.0 °F 28.7 °F 30.0 °F 92% 29.71 in 2.0 mi NNW 3.5 mph - 0.06 in Snow Light Snow
8:58 PM 32.0 °F - 30.0 °F 92% 29.66 in 2.0 mi Calm Calm - 0.01 in Snow Light Snow
9:14 PM 33.1 °F - 30.9 °F 92% 29.66 in 2.5 mi Calm Calm - 0.01 in Snow Light Snow
9:27 PM 33.1 °F - 30.9 °F 92% 29.66 in 2.5 mi Calm Calm - 0.02 in Snow Light Snow
9:45 PM 33.1 °F - 30.9 °F 92% 29.67 in 2.5 mi Calm Calm - 0.05 in Snow Light Snow
9:49 PM 33.8 °F - 30.2 °F 87% 29.67 in 3.0 mi Calm Calm - 0.05 in Snow Light Snow
9:51 PM 32.0 °F - 30.9 °F 96% 29.72 in 3.0 mi Calm Calm - 0.05 in Snow Light Snow
9:57 PM 32.0 °F - 30.0 °F 92% 29.67 in 2.5 mi Calm Calm - 0.00 in Snow Light Snow
10:08 PM 32.0 °F - 30.0 °F 92% 29.67 in 3.0 mi Calm Calm - 0.00 in   Overcast
10:51 PM 32.0 °F 28.7 °F 30.0 °F 92% 29.71 in 4.0 mi NNW 3.5 mph - 0.00 in   Overcast
11:15 PM 32.0 °F - 30.0 °F 92% 29.67 in 5.0 mi Calm Calm - N/A   Overcast
11:25 PM 32.0 °F - 30.0 °F 92% 29.67 in 2.0 mi Calm Calm - N/A   Overcast
11:41 PM 32.0 °F - 30.9 °F 96% 29.68 in 4.0 mi Calm Calm - N/A   Overcast
11:51 PM 32.0 °F - 30.9 °F 96% 29.72 in 6.0 mi Calm Calm - N/A   Overcast